GW4079 Weather Reports


time (UTC)temp
C
wind
direction
speed
KPH
gust
KPH
rain 1hr
cm
rain 24hr
cm
rain mn
cm
humidity
%
barometer
mb
20260504100122 7 349 12.9 17.7 0.00 0.00 0.00 62 1016.4
20260504090107 7 50 17.7 29.0 0.00 0.00 0.00 61 1016.4
20260504081553 8 76 20.9 33.8 0.00 0.00 0.00 55 1015.6
20260504080312 8 71 24.1 33.8 0.00 0.00 0.00 54 1015.3
20260504070119 10 75 22.5 40.2 0.00 0.00 0.00 47 1013.8
20260504050104 12 87 32.2 45.1 0.00 0.00 0.00 37 1011.4
20260504044553 12 80 35.4 49.9 0.00 0.00 0.00 36 1010.9
20260504043110 12 70 17.7 32.2 0.00 0.00 0.00 41 1010.1
20260504041557 13 57 14.5 20.9 0.00 0.00 0.00 39 1009.9
20260504040055 13 57 14.5 20.9 0.00 0.00 0.00 38 1009.4
20260504034549 14 57 17.7 22.5 0.00 0.00 0.00 36 1009.0
20260504033111 15 71 17.7 24.1 0.00 0.00 0.00 35 1008.7
20260504031604 15 61 19.3 25.7 0.00 0.00 0.00 34 1008.5
20260504030101 15 55 19.3 29.0 0.00 0.00 0.00 32 1008.1
20260504024602 16 59 16.1 25.7 0.00 0.00 0.00 29 1008.1
20260504023100 17 49 20.9 29.0 0.00 0.00 0.00 27 1008.2
20260504021555 18 31 9.7 19.3 0.00 0.00 0.00 23 1008.0
20260504020058 19 32 16.1 24.1 0.00 0.00 0.00 21 1008.0
20260504014546 20 34 16.1 29.0 0.00 0.00 0.00 20 1008.2
20260504013103 21 11 19.3 27.4 0.00 0.00 0.00 19 1008.1
20260504011551 21 5 19.3 29.0 0.00 0.00 0.00 19 1008.0
20260504010056 22 19 22.5 33.8 0.00 0.00 0.00 19 1008.2
20260504004611 22 34 20.9 33.8 0.00 0.00 0.00 19 1008.4
20260504003100 22 352 27.4 37.0 0.00 0.00 0.00 18 1008.5
20260504001549 22 22 22.5 33.8 0.00 0.00 0.00 19 1008.7
20260504000045 23 12 22.5 32.2 0.00 0.00 0.00 19 1008.6
20260503234604 23 5 24.1 41.8 0.00 0.00 0.00 19 1008.8
20260503233110 22 26 16.1 38.6 0.00 0.00 0.00 19 1008.7
20260503231557 23 346 22.5 30.6 0.00 0.00 0.00 19 1008.8
20260503230115 23 348 25.7 33.8 0.00 0.00 0.00 17 1008.8
20260503224555 23 15 24.1 33.8 0.00 0.00 0.00 19 1009.1
20260503223059 23 321 17.7 33.8 0.00 0.00 0.00 19 1008.9
20260503221557 23 336 27.4 37.0 0.00 0.00 0.00 18 1009.2
20260503220103 23 349 16.1 25.7 0.00 0.00 0.00 19 1009.5
20260503214606 23 25 22.5 32.2 0.00 0.00 0.00 19 1009.6
20260503213104 22 5 16.1 33.8 0.00 0.00 0.00 18 1009.7
20260503211606 22 352 24.1 35.4 0.00 0.00 0.00 18 1010.1
20260503210058 23 338 22.5 33.8 0.00 0.00 0.00 19 1010.3
20260503204819 23 26 22.5 33.8 0.00 0.00 0.00 18 1010.4
20260503203110 22 5 19.3 35.4 0.00 0.00 0.00 18 1010.6
20260503201810 22 350 19.3 33.8 0.00 0.00 0.00 16 1010.9
20260503200111 22 301 24.1 35.4 0.00 0.00 0.00 18 1010.8
20260503194542 22 277 17.7 32.2 0.00 0.00 0.00 19 1011.1
20260503193054 22 347 14.5 30.6 0.00 0.00 0.00 19 1011.4
20260503191544 21 290 16.1 33.8 0.00 0.00 0.00 20 1011.6
20260503190051 22 346 24.1 37.0 0.00 0.00 0.00 19 1011.8
20260503184602 21 330 20.9 35.4 0.00 0.00 0.00 21 1011.8
20260503183043 21 261 14.5 32.2 0.00 0.00 0.00 22 1012.1
20260503181549 21 306 29.0 37.0 0.00 0.00 0.00 21 1012.2
20260503180057 21 326 24.1 35.4 0.00 0.00 0.00 22 1012.5
20260503174602 21 327 16.1 35.4 0.00 0.00 0.00 23 1012.8
20260503173047 21 338 20.9 38.6 0.00 0.00 0.00 23 1012.9
20260503171537 20 313 14.5 27.4 0.00 0.00 0.00 26 1013.1